{"data":{"norad_id":62017,"intl_designator":"2024-213K","name":"STARLINK-11343 [DTC]","alt_names":[],"object_type":"PAYLOAD","status":"ACTIVE","operator":null,"country":"US","launch_date":"2024-11-18","launch_site_code":"AFWTR","launch_vehicle":null,"mission":null,"orbit_class":"UNKNOWN","rcs_meters":null,"size_class":null,"mass_kg":null,"dimensions":null,"purposes":["comms"],"wikipedia_slug":null,"has_3d_model":false,"image_url":null,"decayed_at":null,"tle_current":{"epoch":"2026-09-21T20:31:00.397344Z","epoch_age_seconds":68470,"freshness":"FRESH","line1":"1 62017U 24213K   26264.85486571  .00106815  00000+0  87267-3 0  9995","line2":"2 62017  53.1569 154.3519 0001137 118.8900 241.2233 15.69779940105723","mean_motion":15.6977994,"eccentricity":0.0001137,"inclination_deg":53.1569,"raan_deg":154.3519,"arg_perigee_deg":118.89,"mean_anomaly_deg":241.2233,"bstar":0.00087267,"rev_number":10572,"period_min":91.732602978733,"perigee_km":358.76054398917,"apogee_km":360.29268869553,"semimajor_km":6737.6636163423,"source":"CELESTRAK","updated_at":"2026-09-22T09:00:49.483976Z"}}}